This is the latest recevied weather packets stored in our database for station/object KC1TWD. If no packets are shown the sender has not sent any weather packets the latest 10 day(s).
| Time | Temp. | Humidity | Pressure | Rain* | Wind** | Luminosity | Snow |
|---|---|---|---|---|---|---|---|
| 1777996234 | 27.22° C | 39% | 1007.1 hPa | 0 mm | - | - | - |
| 1777995930 | 27.22° C | 38% | 1007.2 hPa | 0 mm | - | - | - |
| 1777995627 | 26.11° C | 38% | 1007.5 hPa | 0 mm | - | - | - |
| 1777995324 | 26.67° C | 41% | 1007.4 hPa | 0 mm | - | - | - |
| 1777995021 | 26.11° C | 41% | 1007.4 hPa | 0 mm | - | - | - |
| 1777994718 | 25.56° C | 40% | 1007.6 hPa | 0 mm | - | - | - |
| 1777994413 | 26.11° C | 40% | 1007.6 hPa | 0 mm | - | - | - |
| 1777994109 | 25.56° C | 41% | 1007.7 hPa | 0 mm | - | - | - |
| 1777993806 | 25.56° C | 42% | 1007.7 hPa | 0 mm | - | - | - |
| 1777993503 | 25.56° C | 44% | 1007.7 hPa | 0 mm | - | - | - |
| 1777993203 | 25° C | 42% | 1007.7 hPa | 0 mm | - | - | - |
| 1777992900 | 25.56° C | 42% | 1007.8 hPa | 0 mm | - | - | - |
| 1777992598 | 25° C | 43% | 1008 hPa | 0 mm | - | - | - |
| 1777992296 | 24.44° C | 44% | 1007.8 hPa | 0 mm | - | - | - |
| 1777991993 | 24.44° C | 43% | 1007.9 hPa | 0 mm | - | - | - |
| 1777991691 | 24.44° C | 43% | 1007.9 hPa | 0 mm | - | - | - |
| 1777991388 | 23.89° C | 45% | 1007.9 hPa | 0 mm | - | - | - |
| 1777991085 | 23.33° C | 45% | 1007.9 hPa | 0 mm | - | - | - |
| 1777990782 | 23.33° C | 46% | 1007.8 hPa | 0 mm | - | - | - |
| 1777990479 | 22.78° C | 46% | 1007.8 hPa | 0 mm | - | - | - |
| 1777989873 | 22.78° C | 47% | 1008.1 hPa | 0 mm | - | - | - |
| 1777989569 | 22.22° C | 49% | 1008.1 hPa | 0 mm | - | - | - |
| 1777989266 | 21.67° C | 48% | 1008.2 hPa | 0 mm | - | - | - |
| 1777988962 | 20.56° C | 50% | 1008.1 hPa | 0 mm | - | - | - |
| 1777988659 | 21.11° C | 50% | 1008.1 hPa | 0 mm | - | - | - |
* Rain latest hour (hover to see other rain measurements)
** Current wind speed in m/s (hover to see current wind gust speed)